全球星 M074星 (GLOBALSTAR M074)

导读 | 豆包AI

GLOBALSTAR M074是全球星(Globalstar)低轨通信星座中的卫星,由美国主导的全球星项目运营,于2010年10月19日发射入轨。作为第二代全球星星座成员,它运行在近地轨道,为全球偏远地区、海洋、极地提供语音通信、数据传输与物联网服务,补充地面通信网络盲区,是应急通信、商业野外作业领域的关键通信基础设施,延续了全球星系统全球覆盖高可靠通信的技术特点。

Basic Information
目录编号:
37189
目录名称:
GLOBALSTAR M074
国际标识:
2010-054B
轨道中心:
EARTH
卫星名称:
全球星 M074星
卫星全名:
全球星 M074星 (GLOBALSTAR M074)
卫星状态:
在轨 (已飞行5625 天)
发射日期:
2010-10-19 UTC
国别 :
(GLOB)
星等 :
--
Orbit Information
数据来源 国际轨道数据 AOE轨道数据
星历时间 2026-03-13T16:56:47+0800
23小时前
查看轨道信息
2026-03-11T10:00:00+0800
3天前
查看轨道信息
半长轴 7791.742km 7791.74km
偏心率 0.0000266 0.0000111
轨道倾角 52.003° 52.003°
近地点辐角 75.456° 87.166°
升交点赤经 39.622° 46.592°
平近点角 89.476° 109.156°
近地点 1413.397km 1413.516km
远地点 1413.813km 1413.69km
周期 114.081分钟 114.080分钟
每日圈数 12.622663 12.622668
Detailed Information
固有亮度:
5
最大亮度:
7.2
平衡模式:
三轴稳定
覆盖范围:
全球
运营商:
全球星公司
运营商所在国:
美国
使用方式:
暂无
Satellite Introduction
全球星星座由48颗卫星加8颗备份星组成。这些卫星分布在8个倾角为52度的圆形轨道平面上,每个轨道平面6颗卫星,另有1 颗备用星。轨道高度约为1414km,传输时延和处理时延小于300ms,整个系统的覆盖区为南北纬70度以内的地区。该卫星已退役。
2D Orbit Map
3D Orbit Map
Orbit Altitude Analysis Chart
Orbit Inclination Analysis Chart
Orbit Comprehensive Analysis Chart
View Comprehensive Chart